Location: Votelez
(50.0000°N, 15.0000°E)
Time: 10:25:52
(UTC+01:00)

ISS - Pass Details

Date: 16 February 2026
Orbit: 416 x 426 km, 51.6° (Epoch: 9 March)

Event Time Altitude Azimuth Distance (km) Brightness Sun altitude
Exits shadow 04:51:01 18° 156° (SSE) 1,091 -1.5 -22.7°
Maximum altitude 04:51:36 19° 141° (SE) 1,061 -1.4 -22.6°
Drops below altitude 10° 04:54:04 10° 94° (E) 1,493 0.1 -22.2°
Sets 04:56:33 0° 76° (ENE) 2,358 1.5 -21.8°
